{"data":{"norad_id":49113,"intl_designator":"2021-076B","name":"PAYLOAD B","alt_names":[],"object_type":"PAYLOAD","status":"ACTIVE","operator":null,"country":"PRC","launch_date":"2021-08-24","launch_site_code":"JSC","launch_vehicle":null,"mission":null,"orbit_class":"UNKNOWN","rcs_meters":null,"size_class":null,"mass_kg":null,"dimensions":null,"purposes":[],"wikipedia_slug":null,"has_3d_model":false,"image_url":null,"decayed_at":null,"tle_current":{"epoch":"2026-05-25T05:03:52.319808Z","epoch_age_seconds":54131,"freshness":"FRESH","line1":"1 49113U 21076B   26145.21102222  .00000160  00000+0  81079-4 0  9999","line2":"2 49113  86.4016  92.2343 0017494 281.2087  78.7129 14.09457815244199","mean_motion":14.09457815,"eccentricity":0.0017494,"inclination_deg":86.4016,"raan_deg":92.2343,"arg_perigee_deg":281.2087,"mean_anomaly_deg":78.7129,"bstar":8.1079e-5,"rev_number":24419,"period_min":102.16694566343,"perigee_km":848.56311454356,"apogee_km":873.89220361274,"semimajor_km":7239.3646590782,"source":"CELESTRAK","updated_at":"2026-05-25T13:37:57.085729Z"}}}